TimeCDT,TemperatureF,Dew PointF,Humidity,Sea Level PressureIn,VisibilityMPH,Wind Direction,Wind SpeedMPH,Gust SpeedMPH,PrecipitationIn,Events,Conditions,WindDirDegrees,DateUTC
12:15 AM,59.0,41.0,51,29.73,10.0,Calm,Calm,-,N/A,,Clear,0,2012-10-16 05:15:00
12:35 AM,59.2,41.0,51,29.73,10.0,Calm,Calm,-,N/A,,Clear,0,2012-10-16 05:35:00
12:55 AM,50.7,38.8,64,29.73,10.0,Calm,Calm,-,N/A,,Clear,0,2012-10-16 05:55:00
1:15 AM,53.6,39.9,60,29.71,10.0,SSW,3.5,-,N/A,,Clear,200,2012-10-16 06:15:00
1:35 AM,53.6,40.1,60,29.70,10.0,South,5.8,-,N/A,,Clear,190,2012-10-16 06:35:00
1:55 AM,54.9,40.3,58,29.69,10.0,South,4.6,-,N/A,,Clear,180,2012-10-16 06:55:00
2:15 AM,55.6,39.6,55,29.68,10.0,Calm,Calm,-,N/A,,Clear,0,2012-10-16 07:15:00
2:35 AM,47.1,37.6,69,29.68,10.0,NNW,4.6,-,N/A,,Clear,330,2012-10-16 07:35:00
2:55 AM,47.8,37.9,69,29.68,10.0,WNW,6.9,-,N/A,,Clear,290,2012-10-16 07:55:00
3:15 AM,45.9,36.9,71,29.68,10.0,NW,4.6,-,N/A,,Clear,310,2012-10-16 08:15:00
3:35 AM,46.2,36.3,68,29.68,10.0,WNW,5.8,-,N/A,,Clear,300,2012-10-16 08:35:00
3:55 AM,45.0,35.8,70,29.68,10.0,WNW,4.6,-,N/A,,Clear,290,2012-10-16 08:55:00
4:15 AM,45.3,36.0,70,29.68,10.0,West,6.9,-,N/A,,Clear,280,2012-10-16 09:15:00
4:35 AM,46.0,35.6,67,29.68,10.0,WNW,9.2,-,N/A,,Clear,300,2012-10-16 09:35:00
4:55 AM,55.2,34.9,46,29.68,10.0,WNW,13.8,-,N/A,,Clear,290,2012-10-16 09:55:00
5:15 AM,55.4,34.5,45,29.69,10.0,WNW,15.0,-,N/A,,Clear,290,2012-10-16 10:15:00
5:35 AM,54.7,34.0,46,29.70,10.0,WNW,16.1,-,N/A,,Clear,290,2012-10-16 10:35:00
5:55 AM,53.8,33.8,47,29.71,10.0,WNW,13.8,-,N/A,,Clear,300,2012-10-16 10:55:00
6:15 AM,52.2,33.8,50,29.72,10.0,NW,15.0,-,N/A,,Clear,310,2012-10-16 11:15:00
6:35 AM,51.1,33.6,51,29.73,10.0,NW,10.4,-,N/A,,Clear,310,2012-10-16 11:35:00
7:15 AM,49.5,34.2,56,29.74,10.0,WNW,9.2,-,N/A,,Clear,300,2012-10-16 12:15:00
7:35 AM,49.1,34.9,58,29.75,10.0,WNW,10.4,-,N/A,,Clear,290,2012-10-16 12:35:00
7:55 AM,49.1,35.2,59,29.75,10.0,WNW,11.5,-,N/A,,Clear,290,2012-10-16 12:55:00
8:15 AM,49.1,36.0,61,29.75,10.0,WNW,6.9,-,N/A,,Clear,290,2012-10-16 13:15:00
8:35 AM,50.4,37.0,60,29.75,10.0,WNW,8.1,-,N/A,,Clear,300,2012-10-16 13:35:00
8:55 AM,52.5,38.3,58,29.75,10.0,WNW,8.1,-,N/A,,Clear,300,2012-10-16 13:55:00
9:15 AM,54.1,39.2,57,29.75,10.0,WNW,11.5,-,N/A,,Clear,300,2012-10-16 14:15:00
9:35 AM,55.8,40.1,56,29.75,10.0,WNW,9.2,-,N/A,,Clear,300,2012-10-16 14:35:00
9:55 AM,57.4,40.6,54,29.75,10.0,NW,10.4,-,N/A,,Clear,310,2012-10-16 14:55:00
10:15 AM,59.5,41.2,51,29.74,10.0,NW,9.2,-,N/A,,Clear,320,2012-10-16 15:15:00
10:35 AM,61.3,41.7,49,29.73,10.0,NW,9.2,-,N/A,,Clear,320,2012-10-16 15:35:00
10:55 AM,63.9,42.8,46,29.73,10.0,NW,9.2,-,N/A,,Clear,320,2012-10-16 15:55:00
11:15 AM,66.9,43.2,42,29.71,10.0,NNW,8.1,-,N/A,,Clear,330,2012-10-16 16:15:00
11:35 AM,69.6,41.4,36,29.71,10.0,NNW,9.2,-,N/A,,Clear,340,2012-10-16 16:35:00
11:55 AM,70.5,41.7,35,29.70,10.0,NW,6.9,-,N/A,,Clear,310,2012-10-16 16:55:00
12:15 PM,71.4,40.5,33,29.68,10.0,NW,11.5,-,N/A,,Clear,320,2012-10-16 17:15:00
12:35 PM,72.1,40.3,32,29.67,10.0,WNW,6.9,-,N/A,,Clear,300,2012-10-16 17:35:00
12:55 PM,73.4,39.4,29,29.66,10.0,WNW,9.2,-,N/A,,Clear,290,2012-10-16 17:55:00
1:15 PM,74.3,39.4,28,29.65,10.0,WNW,9.2,-,N/A,,Clear,290,2012-10-16 18:15:00
1:35 PM,74.7,38.8,27,29.63,10.0,West,5.8,9.2,N/A,,Clear,280,2012-10-16 18:35:00
1:55 PM,74.8,37.2,26,29.62,10.0,West,4.6,-,N/A,,Clear,270,2012-10-16 18:55:00
2:15 PM,76.1,36.7,24,29.60,10.0,SW,10.4,-,N/A,,Clear,230,2012-10-16 19:15:00
2:35 PM,77.5,35.8,22,29.59,10.0,SW,8.1,-,N/A,,Clear,230,2012-10-16 19:35:00
2:55 PM,77.9,36.0,22,29.57,10.0,WSW,6.9,-,N/A,,Clear,240,2012-10-16 19:55:00
3:15 PM,78.4,35.8,21,29.56,10.0,West,4.6,-,N/A,,Clear,280,2012-10-16 20:15:00
3:35 PM,79.7,34.9,20,29.55,10.0,West,13.8,17.3,N/A,,Clear,260,2012-10-16 20:35:00
3:55 PM,78.4,34.7,21,29.54,10.0,WSW,8.1,-,N/A,,Clear,240,2012-10-16 20:55:00
4:15 PM,79.0,34.7,20,29.53,10.0,SW,12.7,18.4,N/A,,Clear,230,2012-10-16 21:15:00
4:35 PM,77.4,34.9,21,29.53,10.0,WSW,12.7,16.1,N/A,,Clear,240,2012-10-16 21:35:00
4:55 PM,77.4,36.1,23,29.52,10.0,SSW,11.5,21.9,N/A,,Clear,210,2012-10-16 21:55:00
5:15 PM,76.1,36.0,23,29.52,10.0,SW,11.5,19.6,N/A,,Clear,230,2012-10-16 22:15:00
5:35 PM,75.4,35.6,24,29.51,10.0,SSW,11.5,-,N/A,,Clear,210,2012-10-16 22:35:00
5:55 PM,74.5,36.1,25,29.51,10.0,SSW,8.1,-,N/A,,Clear,200,2012-10-16 22:55:00
6:15 PM,73.8,36.1,25,29.50,10.0,SSW,9.2,-,N/A,,Clear,210,2012-10-16 23:15:00
6:35 PM,73.4,35.8,25,29.50,10.0,SSW,8.1,-,N/A,,Clear,210,2012-10-16 23:35:00
6:55 PM,71.8,35.8,27,29.49,10.0,SSW,6.9,-,N/A,,Scattered Clouds,200,2012-10-16 23:55:00
7:15 PM,70.7,35.8,28,29.49,10.0,SSW,5.8,-,N/A,,Clear,200,2012-10-17 00:15:00
7:35 PM,70.2,35.6,28,29.47,10.0,South,8.1,-,N/A,,Scattered Clouds,180,2012-10-17 00:35:00
7:55 PM,69.8,35.6,28,29.46,10.0,South,9.2,-,N/A,,Scattered Clouds,180,2012-10-17 00:55:00
8:15 PM,69.8,36.1,29,29.46,10.0,South,10.4,-,N/A,,Clear,180,2012-10-17 01:15:00
8:35 PM,68.4,36.7,31,29.45,10.0,South,11.5,-,N/A,,Clear,180,2012-10-17 01:35:00
8:55 PM,67.1,36.7,33,29.45,10.0,South,10.4,-,N/A,,Clear,190,2012-10-17 01:55:00
9:15 PM,67.3,37.0,33,29.44,10.0,SSW,12.7,-,N/A,,Clear,200,2012-10-17 02:15:00
9:35 PM,66.6,37.4,34,29.44,10.0,South,12.7,17.3,N/A,,Clear,190,2012-10-17 02:35:00
9:55 PM,66.4,37.4,34,29.44,10.0,SSW,11.5,-,N/A,,Clear,200,2012-10-17 02:55:00
10:15 PM,65.8,37.8,36,29.44,10.0,SSW,11.5,-,N/A,,Clear,200,2012-10-17 03:15:00
10:35 PM,68.4,37.9,33,29.41,10.0,South,18.4,27.6,N/A,,Scattered Clouds,190,2012-10-17 03:35:00
10:55 PM,69.8,38.3,32,29.42,10.0,SSW,20.7,-,N/A,,Clear,210,2012-10-17 03:55:00
11:15 PM,69.8,39.6,33,29.44,10.0,SW,19.6,24.2,N/A,,Scattered Clouds,220,2012-10-17 04:15:00
11:35 PM,68.2,39.7,35,29.44,10.0,SW,23.0,28.8,N/A,,Mostly Cloudy,220,2012-10-17 04:35:00
11:55 PM,68.9,38.5,33,29.44,10.0,WSW,13.8,-,N/A,,Scattered Clouds,240,2012-10-17 04:55:00